Weather History for Rawlins, WY

Change the Weather History Date:

Monday, April 22, 2013

  Actual Average Record
Temperature  
Mean Temperature 27 °F 42 °F  
Max Temperature 40 °F 56 °F 75 °F (1969)
Min Temperature 14 °F 28 °F 14 °F (2008)
Degree Days  
Heating Degree Days 38 23  
Month to date heating degree days 714 572  
Since 1 July heating degree days 7307 7544  
Cooling Degree Days 0 0  
Month to date cooling degree days 0 0  
Year to date cooling degree days 0 0  
Moisture  
Dew Point 20 °F    
Average Humidity 74    
Maximum Humidity 88    
Minimum Humidity 59    
Precipitation  
Precipitation 0.04 in 0.03 in 0.59 in (1999)
Month to date precipitation 0.55 0.74  
Year to date precipitation 1.23 2.20  
Sea Level Pressure  
Sea Level Pressure 30.06 in    
Wind  
Wind Speed 16 mph (NNE)    
Max Wind Speed 26 mph    
Max Gust Speed 31 mph    
Visibility 4 miles    
Events Fog , Snow    
T = Trace of Precipitation, MM = Missing Value Source: NWS Daily Summary

Daily Weather History Graph

Daily Weather History Graph

Search for Another Location

Airport:

Trip Planner

Search our weather history database for the weather conditions in past years. The results will help you decide how hot, cold, wet, or windy it might be!

Date:

Astronomy

Apr. 22, 2013 Rise Set
Actual Time 6:17 AM MDT 7:57 PM MDT
Civil Twilight 5:47 AM MDT 8:27 PM MDT
Nautical Twilight 5:12 AM MDT 9:03 PM MDT
Astronomical Twilight 4:34 AM MDT 9:41 PM MDT
Moon 4:47 PM MDT (4/22) 4:16 AM MDT (4/22)
Length of Visible Light 14h 39m
Length of Day
13h 40m
Waxing Gibbous, 88% of the Moon is Illuminated
Apr 22
Waxing Gibbous
Apr 25
Full
May 2
Last Quarter
May 9
New
May 17
First Quarter

Hourly Weather History & Observations

Time (MDT) Temp. Windchill Dew Point Humidity Pressure Visibility Wind Dir Wind Speed Gust Speed Precip Events Conditions
12:53 AM 39.9 °F 30.0 °F 26.1 °F 58% 29.85 in 10.0 mi West 21.9 mph 28.8 mph N/A   Mostly Cloudy
1:53 AM 37.9 °F 27.3 °F 27.0 °F 65% 29.83 in 10.0 mi WSW 21.9 mph 27.6 mph N/A   Scattered Clouds
2:53 AM 36.0 °F 25.6 °F 28.0 °F 73% 29.84 in 10.0 mi WSW 18.4 mph 27.6 mph N/A   Clear
3:53 AM 35.1 °F 23.8 °F 28.0 °F 76% 29.84 in 10.0 mi West 20.7 mph 25.3 mph N/A   Clear
4:41 AM 32.0 °F 22.5 °F 26.6 °F 80% 29.95 in 10.0 mi NNW 12.7 mph 19.6 mph N/A   Mostly Cloudy
4:48 AM 28.4 °F 16.6 °F 24.8 °F 86% 29.96 in 10.0 mi North 16.1 mph 21.9 mph N/A   Mostly Cloudy
4:53 AM 28.0 °F 15.3 °F 23.0 °F 81% 29.91 in 10.0 mi North 18.4 mph 21.9 mph N/A   Overcast
5:42 AM 24.8 °F 11.5 °F 21.2 °F 86% 29.96 in 10.0 mi North 17.3 mph - 0.00 in   Overcast
5:53 AM 25.0 °F 13.6 °F 21.9 °F 88% 29.95 in 10.0 mi NNW 12.7 mph - 0.00 in   Overcast
6:02 AM 24.8 °F 14.6 °F 21.2 °F 86% 29.97 in 4.0 mi North 10.4 mph - 0.00 in Snow Light Snow
6:06 AM 24.8 °F 16.9 °F 21.2 °F 86% 29.98 in 2.0 mi North 6.9 mph - 0.00 in Snow Light Snow
6:11 AM 24.8 °F 16.9 °F 21.2 °F 86% 29.98 in 1.0 mi NNW 6.9 mph - 0.00 in Snow Light Snow
6:37 AM 24.8 °F 15.3 °F 21.2 °F 86% 29.99 in 0.8 mi NW 9.2 mph - 0.01 in Snow Light Snow
6:50 AM 24.8 °F 14.6 °F 21.2 °F 86% 30.00 in 0.5 mi NNW 10.4 mph - 0.01 in Fog , Snow Light Snow
6:53 AM 24.1 °F 13.1 °F 21.0 °F 88% 29.97 in 0.8 mi NNW 11.5 mph - 0.01 in Snow Light Snow
7:00 AM 24.8 °F 12.4 °F 21.2 °F 86% 30.00 in 1.2 mi NNW 15.0 mph - 0.00 in Snow Light Snow
7:28 AM 23.0 °F 12.4 °F 19.4 °F 86% 29.99 in 0.8 mi North 10.4 mph - 0.01 in Snow Light Snow
7:40 AM 23.0 °F 12.4 °F 19.4 °F 86% 30.01 in 1.8 mi North 10.4 mph - 0.01 in Snow Light Snow
7:43 AM 23.0 °F 13.1 °F 19.4 °F 86% 30.01 in 3.0 mi North 9.2 mph - 0.01 in Snow Light Snow
7:53 AM 25.0 °F 17.1 °F 21.0 °F 85% 30.00 in 5.0 mi NNE 6.9 mph - 0.01 in Snow Light Snow
8:03 AM 24.8 °F 16.9 °F 19.4 °F 80% 30.02 in 9.0 mi ENE 6.9 mph - 0.00 in   Overcast
8:26 AM 24.8 °F 17.9 °F 19.4 °F 80% 30.03 in 10.0 mi NE 5.8 mph - 0.00 in   Overcast
8:53 AM 24.1 °F 13.1 °F 19.9 °F 84% 30.04 in 10.0 mi ENE 11.5 mph - 0.00 in   Overcast
9:53 AM 24.1 °F 12.5 °F 19.9 °F 84% 30.05 in 2.5 mi ENE 12.7 mph - 0.00 in Snow Light Snow
10:00 AM 24.8 °F 12.4 °F 19.4 °F 80% 30.05 in 0.8 mi ENE 15.0 mph - 0.00 in Snow Light Snow
10:08 AM 23.0 °F 10.1 °F 19.4 °F 86% 30.05 in 1.5 mi NE 15.0 mph - 0.00 in Snow Light Snow
10:14 AM 23.0 °F 10.1 °F 19.4 °F 86% 30.05 in 3.0 mi NE 15.0 mph - 0.00 in Snow Light Snow
10:35 AM 24.8 °F 12.9 °F 19.4 °F 80% 30.05 in 2.0 mi NE 13.8 mph - 0.00 in Snow Light Snow
10:41 AM 24.8 °F 12.9 °F 19.4 °F 80% 30.06 in 0.8 mi NNE 13.8 mph - 0.00 in Snow Light Snow
10:53 AM 24.1 °F 12.5 °F 19.9 °F 84% 30.07 in 0.2 mi NE 12.7 mph - 0.01 in Fog , Snow Heavy Snow
11:21 AM 26.6 °F 15.2 °F 19.4 °F 74% 30.07 in 1.2 mi NNE 13.8 mph - 0.00 in Snow Light Snow
11:39 AM 26.6 °F 16.2 °F 21.2 °F 80% 30.07 in 5.0 mi NE 11.5 mph - 0.00 in Snow Light Snow
11:53 AM 27.0 °F 16.1 °F 21.0 °F 78% 30.07 in 5.0 mi NE 12.7 mph - 0.00 in Snow Light Snow
12:24 PM 26.6 °F 14.3 °F 21.2 °F 80% 30.07 in 1.8 mi NE 16.1 mph - 0.00 in Snow Light Snow
12:41 PM 26.6 °F 14.3 °F 19.4 °F 74% 30.07 in 1.5 mi NE 16.1 mph 21.9 mph 0.00 in Snow Light Snow
12:53 PM 25.0 °F 11.7 °F 21.0 °F 85% 30.08 in 0.5 mi NE 17.3 mph - 0.00 in Fog , Snow Snow
1:00 PM 26.6 °F 14.3 °F 21.2 °F 80% 30.07 in 0.5 mi NE 16.1 mph - 0.00 in Snow Snow
1:15 PM 24.8 °F 12.9 °F 21.2 °F 86% 30.07 in 0.5 mi NE 13.8 mph - 0.00 in Fog , Snow Snow
1:53 PM 26.1 °F 13.1 °F 21.9 °F 84% 30.09 in 0.5 mi NNE 17.3 mph - 0.01 in Fog , Snow Snow
2:13 PM 26.6 °F 13.1 °F 23.0 °F 86% 30.07 in 1.0 mi NE 19.6 mph - 0.00 in Snow Light Snow
2:27 PM 28.4 °F 15.4 °F 23.0 °F 80% 30.07 in 2.0 mi NNE 19.6 mph - 0.00 in Snow Light Snow
2:31 PM 26.6 °F 13.4 °F 21.2 °F 80% 30.07 in 3.0 mi NE 18.4 mph - 0.00 in Snow Light Snow
2:43 PM 28.4 °F 15.8 °F 23.0 °F 80% 30.07 in 2.5 mi NE 18.4 mph 24.2 mph 0.00 in Snow Light Snow
2:53 PM 26.1 °F 12.3 °F 21.0 °F 81% 30.12 in 1.5 mi NNE 19.6 mph 27.6 mph 0.00 in Snow Light Snow
2:56 PM 26.6 °F 13.1 °F 21.2 °F 80% 30.08 in 2.0 mi NE 19.6 mph 27.6 mph 0.00 in Snow Light Snow
3:07 PM 26.6 °F 12.7 °F 21.2 °F 80% 30.08 in 4.0 mi NNE 20.7 mph - 0.00 in Snow Light Snow
3:53 PM 28.0 °F 15.7 °F 21.0 °F 75% 30.10 in 10.0 mi NE 17.3 mph 26.5 mph 0.00 in   Overcast
4:15 PM 26.6 °F 13.8 °F 19.4 °F 74% 30.08 in 10.0 mi NE 17.3 mph 27.6 mph 0.00 in   Overcast
4:28 PM 26.6 °F 12.7 °F 19.4 °F 74% 30.09 in 10.0 mi NE 20.7 mph 26.5 mph 0.00 in   Overcast
4:53 PM 25.0 °F 10.2 °F 19.0 °F 78% 30.16 in 10.0 mi NE 21.9 mph 29.9 mph 0.00 in   Overcast
5:04 PM 24.8 °F 9.6 °F 19.4 °F 80% 30.09 in 8.0 mi NE 23.0 mph 31.1 mph 0.00 in Snow Light Snow
5:36 PM 24.8 °F 9.6 °F 17.6 °F 74% 30.10 in 7.0 mi NE 23.0 mph 28.8 mph 0.00 in Snow Light Snow
5:53 PM 23.0 °F 8.7 °F 18.0 °F 81% 30.22 in 3.0 mi NE 18.4 mph 27.6 mph 0.00 in Snow Light Snow
6:02 PM 23.0 °F 9.2 °F 17.6 °F 80% 30.11 in 2.0 mi NE 17.3 mph 26.5 mph 0.00 in Snow Light Snow
6:10 PM 23.0 °F 8.3 °F 17.6 °F 80% 30.10 in 1.5 mi NE 19.6 mph 26.5 mph 0.00 in Snow Light Snow
6:53 PM 21.0 °F 7.6 °F 17.1 °F 85% 30.25 in 1.0 mi NE 15.0 mph - 0.00 in Snow Light Snow
7:04 PM 21.2 °F 6.4 °F 17.6 °F 86% 30.13 in 0.8 mi NE 18.4 mph 24.2 mph 0.00 in Snow Light Snow
7:22 PM 19.4 °F 4.5 °F 17.6 °F 93% 30.13 in 1.0 mi NE 17.3 mph - 0.00 in Snow Light Snow
7:53 PM 19.9 °F 4.3 °F 16.0 °F 85% 30.26 in 1.0 mi NE 19.6 mph - 0.00 in Snow Light Snow
8:45 PM 19.4 °F 4.5 °F 15.8 °F 86% 30.16 in 2.0 mi NE 17.3 mph 25.3 mph 0.00 in Snow Light Snow
8:53 PM 18.0 °F 2.6 °F 14.0 °F 84% 30.30 in 3.0 mi NE 17.3 mph 23.0 mph 0.00 in Snow Light Snow
9:53 PM 18.0 °F 4.8 °F 12.9 °F 81% 30.32 in 10.0 mi NE 12.7 mph 23.0 mph 0.00 in   Overcast
10:23 PM 17.6 °F 3.7 °F 12.2 °F 79% 30.17 in 8.0 mi NE 13.8 mph - 0.00 in Snow Light Snow
10:53 PM 17.1 °F 2.5 °F 12.0 °F 81% 30.30 in 6.0 mi NE 15.0 mph - 0.00 in Snow Light Snow
11:53 PM 17.1 °F 4.3 °F 10.9 °F 77% 30.29 in 7.0 mi NE 11.5 mph - 0.00 in   Overcast